Time,TemperatureF,DewpointF,PressureIn,WindDirection,WindDirectionDegrees,WindSpeedMPH,WindSpeedGustMPH,Humidity,HourlyPrecipIn,Conditions,Clouds,dailyrainin,SoftwareType,DateUTC
2013-01-24 00:05:00,2.5,-0.2,30.13,SSE,150,0.0,0.0,88,0.00,,,0.00,Wunderground v.1.15,2013-01-24 05:05:00,
2013-01-24 00:10:00,2.5,-0.5,30.13,SSE,151,0.0,0.0,87,0.00,,,0.00,Wunderground v.1.15,2013-01-24 05:10:00,
2013-01-24 00:20:00,2.6,-0.1,30.13,SSE,151,0.0,0.0,88,0.00,,,0.00,Wunderground v.1.15,2013-01-24 05:20:00,
2013-01-24 00:25:00,2.6,-0.1,30.13,SSE,150,0.0,0.0,88,0.00,,,0.00,Wunderground v.1.15,2013-01-24 05:25:00,
2013-01-24 00:35:00,2.8,0.1,30.12,SSE,151,1.0,1.0,88,0.00,,,0.00,Wunderground v.1.15,2013-01-24 05:35:00,
2013-01-24 00:40:00,3.0,0.3,30.12,SSE,151,1.0,1.0,88,0.00,,,0.00,Wunderground v.1.15,2013-01-24 05:40:00,
2013-01-24 00:45:00,3.3,0.5,30.12,SSE,150,1.0,1.0,88,0.00,,,0.00,Wunderground v.1.15,2013-01-24 05:45:00,
2013-01-24 00:50:00,3.5,0.7,30.12,SSE,151,1.0,1.0,88,0.00,,,0.00,Wunderground v.1.15,2013-01-24 05:50:00,
2013-01-24 00:55:00,3.6,0.8,30.12,SSE,151,0.0,1.0,88,0.00,,,0.00,Wunderground v.1.15,2013-01-24 05:55:00,
2013-01-24 01:05:00,4.0,1.2,30.13,SSE,150,0.0,0.0,88,0.00,,,0.00,Wunderground v.1.15,2013-01-24 06:05:00,
2013-01-24 01:15:00,4.3,1.8,30.13,SSE,151,0.0,0.0,89,0.00,,,0.00,Wunderground v.1.15,2013-01-24 06:15:00,
2013-01-24 01:20:00,4.4,1.9,30.12,SSE,151,0.0,0.0,89,0.00,,,0.00,Wunderground v.1.15,2013-01-24 06:20:00,
2013-01-24 01:30:00,4.7,2.2,30.12,SSE,150,0.0,0.0,89,0.00,,,0.00,Wunderground v.1.15,2013-01-24 06:30:00,
2013-01-24 01:40:00,5.0,5.0,30.13,SSE,151,0.0,0.0,100,0.00,,,0.00,Wunderground v.1.15,2013-01-24 06:40:00,
2013-01-24 01:50:00,5.2,2.7,30.13,SSE,151,0.0,0.0,89,0.00,,,0.00,Wunderground v.1.15,2013-01-24 06:50:00,
2013-01-24 02:00:00,5.5,3.0,30.14,SSE,151,0.0,0.0,89,0.00,,,0.00,Wunderground v.1.15,2013-01-24 07:00:00,
2013-01-24 02:10:00,5.6,3.1,30.14,SSE,151,0.0,0.0,89,0.00,,,0.00,Wunderground v.1.15,2013-01-24 07:10:00,
2013-01-24 02:20:00,5.8,3.3,30.14,SSE,151,0.0,0.0,89,0.00,,,0.00,Wunderground v.1.15,2013-01-24 07:20:00,
2013-01-24 02:30:00,6.1,3.6,30.15,SSE,151,0.0,0.0,89,0.00,,,0.00,Wunderground v.1.15,2013-01-24 07:30:00,
2013-01-24 02:40:00,6.3,3.8,30.14,SSE,150,0.0,0.0,89,0.00,,,0.00,Wunderground v.1.15,2013-01-24 07:40:00,
2013-01-24 02:45:00,6.4,3.9,30.15,SSE,151,0.0,0.0,89,0.00,,,0.00,Wunderground v.1.15,2013-01-24 07:45:00,
2013-01-24 02:50:00,6.5,3.9,30.15,SSE,151,0.0,0.0,89,0.00,,,0.00,Wunderground v.1.15,2013-01-24 07:50:00,
2013-01-24 03:00:00,6.8,4.5,30.15,SSE,151,0.0,0.0,90,0.00,,,0.00,Wunderground v.1.15,2013-01-24 08:00:00,
2013-01-24 03:05:00,7.0,4.7,30.15,SSE,151,0.0,0.0,90,0.00,,,0.00,Wunderground v.1.15,2013-01-24 08:05:00,
2013-01-24 03:15:00,7.4,5.1,30.15,SSE,150,0.0,0.0,90,0.00,,,0.00,Wunderground v.1.15,2013-01-24 08:15:00,
2013-01-24 03:25:00,7.8,5.5,30.15,SSE,151,0.0,0.0,90,0.00,,,0.00,Wunderground v.1.15,2013-01-24 08:25:00,
2013-01-24 03:30:00,7.9,5.6,30.16,SSE,151,0.0,0.0,90,0.00,,,0.00,Wunderground v.1.15,2013-01-24 08:30:00,
2013-01-24 03:40:00,8.2,5.9,30.16,SSE,150,0.0,0.0,90,0.00,,,0.00,Wunderground v.1.15,2013-01-24 08:40:00,
2013-01-24 03:45:00,8.2,5.9,30.16,SSE,151,0.0,0.0,90,0.00,,,0.00,Wunderground v.1.15,2013-01-24 08:45:00,
2013-01-24 03:55:00,8.3,6.0,30.17,SSE,151,0.0,0.0,90,0.00,,,0.00,Wunderground v.1.15,2013-01-24 08:55:00,
2013-01-24 04:00:00,8.4,6.1,30.17,SSE,151,0.0,0.0,90,0.00,,,0.00,Wunderground v.1.15,2013-01-24 09:00:00,
2013-01-24 04:10:00,8.4,6.1,30.17,SSE,151,0.0,0.0,90,0.00,,,0.00,Wunderground v.1.15,2013-01-24 09:10:00,
2013-01-24 04:15:00,8.5,6.2,30.18,SSE,151,0.0,0.0,90,0.00,,,0.00,Wunderground v.1.15,2013-01-24 09:15:00,
2013-01-24 04:25:00,8.5,6.2,30.18,SSE,150,0.0,0.0,90,0.00,,,0.00,Wunderground v.1.15,2013-01-24 09:25:00,
2013-01-24 04:35:00,8.4,6.1,30.19,SSE,151,0.0,0.0,90,0.00,,,0.00,Wunderground v.1.15,2013-01-24 09:35:00,
2013-01-24 04:40:00,8.3,5.7,30.19,SSE,151,0.0,0.0,89,0.00,,,0.00,Wunderground v.1.15,2013-01-24 09:40:00,
2013-01-24 04:50:00,8.1,5.5,30.19,SSE,151,0.0,0.0,89,0.00,,,0.00,Wunderground v.1.15,2013-01-24 09:50:00,
2013-01-24 05:00:00,7.9,5.3,30.19,SSE,150,0.0,0.0,89,0.00,,,0.00,Wunderground v.1.15,2013-01-24 10:00:00,
2013-01-24 05:10:00,7.5,4.9,30.20,SSE,151,0.0,0.0,89,0.00,,,0.00,Wunderground v.1.15,2013-01-24 10:10:00,
2013-01-24 05:15:00,7.2,4.4,30.20,SSE,151,0.0,0.0,88,0.00,,,0.00,Wunderground v.1.15,2013-01-24 10:15:00,
2013-01-24 05:20:00,6.9,4.1,30.20,SSE,151,0.0,0.0,88,0.00,,,0.00,Wunderground v.1.15,2013-01-24 10:20:00,
2013-01-24 05:25:00,6.6,3.8,30.20,SSE,150,0.0,1.0,88,0.00,,,0.00,Wunderground v.1.15,2013-01-24 10:25:00,
2013-01-24 05:30:00,6.1,3.1,30.21,SSE,151,1.0,1.0,87,0.00,,,0.00,Wunderground v.1.15,2013-01-24 10:30:00,
2013-01-24 05:40:00,5.6,2.6,30.22,SSE,151,0.0,0.0,87,0.00,,,0.00,Wunderground v.1.15,2013-01-24 10:40:00,
2013-01-24 05:45:00,5.4,2.4,30.22,SSE,151,0.0,0.0,87,0.00,,,0.00,Wunderground v.1.15,2013-01-24 10:45:00,
2013-01-24 05:55:00,5.0,4.6,30.23,SSE,151,0.0,0.0,98,0.00,,,0.00,Wunderground v.1.15,2013-01-24 10:55:00,
2013-01-24 06:05:00,4.5,1.5,30.23,SSE,150,0.0,0.0,87,0.00,,,0.00,Wunderground v.1.15,2013-01-24 11:05:00,
2013-01-24 06:10:00,4.3,1.3,30.24,SSE,151,0.0,0.0,87,0.00,,,0.00,Wunderground v.1.15,2013-01-24 11:10:00,
2013-01-24 06:15:00,4.1,1.1,30.24,SSE,150,0.0,0.0,87,0.00,,,0.00,Wunderground v.1.15,2013-01-24 11:15:00,
2013-01-24 06:25:00,3.7,0.7,30.25,SSE,150,0.0,0.0,87,0.00,,,0.00,Wunderground v.1.15,2013-01-24 11:25:00,
2013-01-24 06:35:00,3.2,0.0,30.25,SSE,151,0.0,0.0,86,0.00,,,0.00,Wunderground v.1.15,2013-01-24 11:35:00,
2013-01-24 06:45:00,3.0,0.0,30.26,SSE,150,0.0,0.0,87,0.00,,,0.00,Wunderground v.1.15,2013-01-24 11:45:00,
2013-01-24 06:55:00,3.0,0.0,30.27,SSE,151,0.0,0.0,87,0.00,,,0.00,Wunderground v.1.15,2013-01-24 11:55:00,
2013-01-24 07:05:00,3.3,0.5,30.28,SSE,150,0.0,0.0,88,0.00,,,0.00,Wunderground v.1.15,2013-01-24 12:05:00,
2013-01-24 07:10:00,3.5,0.7,30.28,SSE,151,0.0,0.0,88,0.00,,,0.00,Wunderground v.1.15,2013-01-24 12:10:00,
2013-01-24 07:20:00,3.9,1.1,30.29,SSE,151,0.0,0.0,88,0.00,,,0.00,Wunderground v.1.15,2013-01-24 12:20:00,
2013-01-24 07:30:00,4.5,2.0,30.29,SSE,151,0.0,0.0,89,0.00,,,0.00,Wunderground v.1.15,2013-01-24 12:30:00,
2013-01-24 07:40:00,5.1,2.6,30.29,SSE,151,0.0,0.0,89,0.00,,,0.00,Wunderground v.1.15,2013-01-24 12:40:00,
2013-01-24 07:45:00,5.3,2.8,30.29,SSE,150,0.0,0.0,89,0.00,,,0.00,Wunderground v.1.15,2013-01-24 12:45:00,
2013-01-24 07:50:00,5.5,3.0,30.30,SSE,150,0.0,0.0,89,0.00,,,0.00,Wunderground v.1.15,2013-01-24 12:50:00,
2013-01-24 08:00:00,6.0,3.7,30.30,SSE,151,0.0,0.0,90,0.00,,,0.00,Wunderground v.1.15,2013-01-24 13:00:00,
2013-01-24 08:05:00,6.2,3.9,30.31,SSE,151,0.0,0.0,90,0.00,,,0.00,Wunderground v.1.15,2013-01-24 13:05:00,
2013-01-24 08:15:00,6.9,4.6,30.32,SSE,151,0.0,0.0,90,0.00,,,0.00,Wunderground v.1.15,2013-01-24 13:15:00,
2013-01-24 08:20:00,7.2,4.9,30.32,SSE,151,0.0,0.0,90,0.00,,,0.00,Wunderground v.1.15,2013-01-24 13:20:00,
2013-01-24 08:30:00,7.8,5.5,30.33,SSE,151,0.0,0.0,90,0.00,,,0.00,Wunderground v.1.15,2013-01-24 13:30:00,
2013-01-24 08:35:00,8.1,6.0,30.33,SSE,151,0.0,0.0,91,0.00,,,0.00,Wunderground v.1.15,2013-01-24 13:35:00,
2013-01-24 08:40:00,8.3,6.2,30.33,SSE,150,0.0,0.0,91,0.00,,,0.00,Wunderground v.1.15,2013-01-24 13:40:00,
2013-01-24 08:45:00,8.6,6.5,30.34,SSE,151,0.0,1.0,91,0.00,,,0.00,Wunderground v.1.15,2013-01-24 13:45:00,
2013-01-24 08:50:00,8.9,6.6,30.34,SSE,150,0.0,1.0,90,0.00,,,0.00,Wunderground v.1.15,2013-01-24 13:50:00,
2013-01-24 09:00:00,9.2,6.9,30.35,SSE,150,0.0,1.0,90,0.00,,,0.00,Wunderground v.1.15,2013-01-24 14:00:00,
2013-01-24 09:05:00,9.4,7.1,30.35,SSE,150,0.0,1.0,90,0.00,,,0.00,Wunderground v.1.15,2013-01-24 14:05:00,
2013-01-24 09:10:00,9.6,7.3,30.36,SSE,150,0.0,0.0,90,0.00,,,0.00,Wunderground v.1.15,2013-01-24 14:10:00,
2013-01-24 09:20:00,10.2,7.9,30.36,SSE,150,0.0,0.0,90,0.00,,,0.00,Wunderground v.1.15,2013-01-24 14:20:00,
2013-01-24 09:30:00,10.9,8.5,30.36,SSE,150,0.0,0.0,90,0.00,,,0.00,Wunderground v.1.15,2013-01-24 14:30:00,
2013-01-24 09:40:00,11.8,9.4,30.37,SSE,150,0.0,2.0,90,0.00,,,0.00,Wunderground v.1.15,2013-01-24 14:40:00,
2013-01-24 09:45:00,12.2,9.6,30.38,SSE,150,1.0,2.0,89,0.00,,,0.00,Wunderground v.1.15,2013-01-24 14:45:00,
2013-01-24 09:55:00,12.9,10.0,30.38,SSE,150,0.0,0.0,88,0.00,,,0.00,Wunderground v.1.15,2013-01-24 14:55:00,
2013-01-24 10:00:00,13.2,10.3,30.38,SSE,150,0.0,0.0,88,0.00,,,0.00,Wunderground v.1.15,2013-01-24 15:00:00,
2013-01-24 10:10:00,13.9,10.7,30.39,SSE,150,0.0,0.0,87,0.00,,,0.00,Wunderground v.1.15,2013-01-24 15:10:00,
2013-01-24 10:15:00,14.1,10.7,30.40,SSE,150,0.0,0.0,86,0.00,,,0.00,Wunderground v.1.15,2013-01-24 15:15:00,
2013-01-24 10:20:00,14.1,10.4,30.40,SSE,150,0.0,0.0,85,0.00,,,0.00,Wunderground v.1.15,2013-01-24 15:20:00,
2013-01-24 10:30:00,13.7,9.8,30.40,SSE,149,1.0,2.0,84,0.00,,,0.00,Wunderground v.1.15,2013-01-24 15:30:00,
2013-01-24 10:35:00,13.5,9.6,30.41,SE,134,1.0,2.0,84,0.00,,,0.00,Wunderground v.1.15,2013-01-24 15:35:00,
2013-01-24 10:40:00,13.5,9.6,30.42,SE,134,1.0,1.0,84,0.00,,,0.00,Wunderground v.1.15,2013-01-24 15:40:00,
2013-01-24 10:50:00,13.5,9.6,30.42,ESE,113,1.0,1.0,84,0.00,,,0.00,Wunderground v.1.15,2013-01-24 15:50:00,
2013-01-24 11:00:00,13.4,9.5,30.42,ESE,112,0.0,0.0,84,0.00,,,0.00,Wunderground v.1.15,2013-01-24 16:00:00,
2013-01-24 11:05:00,13.6,9.7,30.42,ESE,107,1.0,1.0,84,0.00,,,0.00,Wunderground v.1.15,2013-01-24 16:05:00,
2013-01-24 11:15:00,13.6,9.4,30.43,NW,319,4.0,7.0,83,0.00,,,0.00,Wunderground v.1.15,2013-01-24 16:15:00,
2013-01-24 11:20:00,13.0,8.8,30.43,NW,313,6.0,6.0,83,0.00,,,0.00,Wunderground v.1.15,2013-01-24 16:20:00,
2013-01-24 11:30:00,12.9,8.7,30.44,NNW,335,4.0,4.0,83,0.00,,,0.00,Wunderground v.1.15,2013-01-24 16:30:00,
2013-01-24 11:40:00,13.8,9.0,30.43,NNW,338,3.0,3.0,81,0.00,,,0.00,Wunderground v.1.15,2013-01-24 16:40:00,
2013-01-24 11:50:00,14.5,8.9,30.43,NW,307,3.0,4.0,78,0.00,,,0.00,Wunderground v.1.15,2013-01-24 16:50:00,
2013-01-24 12:00:00,15.0,8.8,30.43,NW,318,4.0,5.0,76,0.00,,,0.00,Wunderground v.1.15,2013-01-24 17:00:00,
2013-01-24 12:10:00,14.6,7.8,30.43,WNW,298,5.0,6.0,74,0.00,,,0.00,Wunderground v.1.15,2013-01-24 17:10:00,
2013-01-24 12:20:00,14.3,7.5,30.44,West,280,6.0,8.0,74,0.00,,,0.00,Wunderground v.1.15,2013-01-24 17:20:00,
2013-01-24 12:30:00,13.7,6.9,30.44,NW,324,5.0,8.0,74,0.00,,,0.00,Wunderground v.1.15,2013-01-24 17:30:00,
2013-01-24 12:35:00,13.5,7.0,30.44,WNW,302,4.0,8.0,75,0.00,,,0.00,Wunderground v.1.15,2013-01-24 17:35:00,
2013-01-24 12:40:00,13.7,7.5,30.44,NW,311,3.0,3.0,76,0.00,,,0.00,Wunderground v.1.15,2013-01-24 17:40:00,
2013-01-24 12:50:00,13.2,7.9,30.45,NW,305,4.0,4.0,79,0.00,,,0.00,Wunderground v.1.15,2013-01-24 17:50:00,
2013-01-24 13:00:00,12.9,8.2,30.45,NW,307,5.0,9.0,81,0.00,,,0.00,Wunderground v.1.15,2013-01-24 18:00:00,
2013-01-24 13:05:00,13.0,8.3,30.45,WNW,284,4.0,9.0,81,0.00,,,0.00,Wunderground v.1.15,2013-01-24 18:05:00,
2013-01-24 13:15:00,12.7,7.1,30.45,West,277,6.0,11.0,78,0.00,,,0.00,Wunderground v.1.15,2013-01-24 18:15:00,
2013-01-24 13:25:00,13.6,7.7,30.45,NNW,333,5.0,8.0,77,0.00,,,0.00,Wunderground v.1.15,2013-01-24 18:25:00,
2013-01-24 13:35:00,13.2,7.3,30.45,WNW,287,6.0,7.0,77,0.00,,,0.00,Wunderground v.1.15,2013-01-24 18:35:00,
2013-01-24 13:45:00,14.3,8.4,30.45,WNW,302,5.0,6.0,77,0.00,,,0.00,Wunderground v.1.15,2013-01-24 18:45:00,
2013-01-24 13:50:00,14.5,7.7,30.45,WNW,287,5.0,13.0,74,0.00,,,0.00,Wunderground v.1.15,2013-01-24 18:50:00,
2013-01-24 14:00:00,14.5,6.5,30.45,WNW,294,7.0,10.0,70,0.00,,,0.00,Wunderground v.1.15,2013-01-24 19:00:00,
2013-01-24 14:05:00,13.8,5.8,30.45,WNW,287,9.0,10.0,70,0.00,,,0.00,Wunderground v.1.15,2013-01-24 19:05:00,
2013-01-24 14:10:00,13.3,5.6,30.46,NW,304,8.0,12.0,71,0.00,,,0.00,Wunderground v.1.15,2013-01-24 19:10:00,
2013-01-24 14:25:00,13.4,6.7,30.46,WNW,294,7.0,7.0,74,0.00,,,0.00,Wunderground v.1.15,2013-01-24 19:25:00,
2013-01-24 14:35:00,12.3,5.6,30.46,West,276,10.0,10.0,74,0.00,,,0.00,Wunderground v.1.15,2013-01-24 19:35:00,
2013-01-24 14:40:00,12.4,5.4,30.47,West,280,7.0,10.0,73,0.00,,,0.00,Wunderground v.1.15,2013-01-24 19:40:00,
2013-01-24 14:50:00,12.4,5.4,30.47,NW,308,7.0,12.0,73,0.00,,,0.00,Wunderground v.1.15,2013-01-24 19:50:00,
2013-01-24 15:00:00,12.8,5.2,30.48,NW,304,7.0,8.0,71,0.00,,,0.00,Wunderground v.1.15,2013-01-24 20:00:00,
2013-01-24 15:05:00,12.8,4.9,30.47,West,280,8.0,13.0,70,0.00,,,0.00,Wunderground v.1.15,2013-01-24 20:05:00,
2013-01-24 15:15:00,12.5,4.3,30.48,WNW,298,8.0,11.0,69,0.00,,,0.00,Wunderground v.1.15,2013-01-24 20:15:00,
2013-01-24 15:25:00,12.1,4.2,30.48,West,271,9.0,12.0,70,0.00,,,0.00,Wunderground v.1.15,2013-01-24 20:25:00,
2013-01-24 15:30:00,12.1,4.5,30.48,WNW,286,8.0,8.0,71,0.00,,,0.00,Wunderground v.1.15,2013-01-24 20:30:00,
2013-01-24 15:35:00,12.0,4.4,30.48,WNW,284,7.0,9.0,71,0.00,,,0.00,Wunderground v.1.15,2013-01-24 20:35:00,
2013-01-24 15:45:00,11.2,4.2,30.49,WNW,300,9.0,10.0,73,0.00,,,0.00,Wunderground v.1.15,2013-01-24 20:45:00,
2013-01-24 15:55:00,10.7,4.6,30.49,West,275,8.0,8.0,76,0.00,,,0.00,Wunderground v.1.15,2013-01-24 20:55:00,
2013-01-24 16:05:00,10.9,5.7,30.49,NW,308,6.0,7.0,79,0.00,,,0.00,Wunderground v.1.15,2013-01-24 21:05:00,
2013-01-24 16:15:00,10.7,5.5,30.49,WNW,286,6.0,6.0,79,0.00,,,0.00,Wunderground v.1.15,2013-01-24 21:15:00,
2013-01-24 16:25:00,11.0,4.3,30.50,WNW,289,7.0,12.0,74,0.00,,,0.00,Wunderground v.1.15,2013-01-24 21:25:00,
2013-01-24 16:35:00,10.9,3.3,30.51,WNW,293,7.0,7.0,71,0.00,,,0.00,Wunderground v.1.15,2013-01-24 21:35:00,
2013-01-24 16:45:00,10.5,3.3,30.51,West,269,7.0,11.0,72,0.00,,,0.00,Wunderground v.1.15,2013-01-24 21:45:00,
2013-01-24 16:50:00,10.3,3.1,30.51,WNW,294,8.0,8.0,72,0.00,,,0.00,Wunderground v.1.15,2013-01-24 21:50:00,
2013-01-24 17:00:00,10.2,3.0,30.51,WNW,287,7.0,7.0,72,0.00,,,0.00,Wunderground v.1.15,2013-01-24 22:00:00,
2013-01-24 17:10:00,9.9,2.7,30.52,WNW,282,6.0,6.0,72,0.00,,,0.00,Wunderground v.1.15,2013-01-24 22:10:00,
2013-01-24 17:20:00,9.7,2.8,30.52,West,276,6.0,7.0,73,0.00,,,0.00,Wunderground v.1.15,2013-01-24 22:20:00,
2013-01-24 17:30:00,9.5,2.6,30.52,WNW,286,6.0,7.0,73,0.00,,,0.00,Wunderground v.1.15,2013-01-24 22:30:00,
2013-01-24 17:35:00,9.4,2.5,30.53,WNW,284,6.0,7.0,73,0.00,,,0.00,Wunderground v.1.15,2013-01-24 22:35:00,
2013-01-24 17:40:00,9.4,2.8,30.53,WNW,292,5.0,5.0,74,0.00,,,0.00,Wunderground v.1.15,2013-01-24 22:40:00,
2013-01-24 17:50:00,9.2,2.6,30.53,West,279,4.0,12.0,74,0.00,,,0.00,Wunderground v.1.15,2013-01-24 22:50:00,
2013-01-24 18:00:00,9.1,2.5,30.53,West,273,5.0,5.0,74,0.00,,,0.00,Wunderground v.1.15,2013-01-24 23:00:00,
2013-01-24 18:10:00,8.8,2.5,30.53,WSW,250,4.0,6.0,75,0.00,,,0.00,Wunderground v.1.15,2013-01-24 23:10:00,
2013-01-24 18:20:00,8.6,2.3,30.54,NW,319,4.0,9.0,75,0.00,,,0.00,Wunderground v.1.15,2013-01-24 23:20:00,
2013-01-24 18:30:00,8.6,2.6,30.54,West,277,5.0,7.0,76,0.00,,,0.00,Wunderground v.1.15,2013-01-24 23:30:00,
2013-01-24 18:40:00,8.5,2.5,30.54,West,274,4.0,4.0,76,0.00,,,0.00,Wunderground v.1.15,2013-01-24 23:40:00,
2013-01-24 18:45:00,8.3,2.6,30.54,West,271,4.0,4.0,77,0.00,,,0.00,Wunderground v.1.15,2013-01-24 23:45:00,
2013-01-24 18:50:00,8.2,2.5,30.55,West,271,3.0,3.0,77,0.00,,,0.00,Wunderground v.1.15,2013-01-24 23:50:00,
2013-01-24 19:00:00,8.0,2.3,30.55,West,271,3.0,3.0,77,0.00,,,0.00,Wunderground v.1.15,2013-01-25 00:00:00,
2013-01-24 19:10:00,8.2,2.8,30.55,West,276,3.0,3.0,78,0.00,,,0.00,Wunderground v.1.15,2013-01-25 00:10:00,
2013-01-24 19:15:00,8.2,2.8,30.55,West,276,3.0,3.0,78,0.00,,,0.00,Wunderground v.1.15,2013-01-25 00:15:00,
2013-01-24 19:20:00,8.3,2.9,30.55,West,281,3.0,3.0,78,0.00,,,0.00,Wunderground v.1.15,2013-01-25 00:20:00,
2013-01-24 19:30:00,8.4,2.7,30.55,WNW,283,3.0,3.0,77,0.00,,,0.00,Wunderground v.1.15,2013-01-25 00:30:00,
2013-01-24 19:40:00,8.4,2.7,30.55,West,277,2.0,2.0,77,0.00,,,0.00,Wunderground v.1.15,2013-01-25 00:40:00,
2013-01-24 19:50:00,8.5,2.8,30.55,WNW,283,3.0,3.0,77,0.00,,,0.00,Wunderground v.1.15,2013-01-25 00:50:00,
2013-01-24 20:00:00,8.4,2.7,30.54,WNW,287,2.0,5.0,77,0.00,,,0.00,Wunderground v.1.15,2013-01-25 01:00:00,
2013-01-24 20:10:00,8.3,2.6,30.54,WNW,283,2.0,4.0,77,0.00,,,0.00,Wunderground v.1.15,2013-01-25 01:10:00,
2013-01-24 20:15:00,8.3,2.6,30.54,West,270,2.0,5.0,77,0.00,,,0.00,Wunderground v.1.15,2013-01-25 01:15:00,
2013-01-24 20:25:00,8.4,2.9,30.53,West,267,2.0,3.0,78,0.00,,,0.00,Wunderground v.1.15,2013-01-25 01:25:00,
2013-01-24 20:30:00,8.4,2.9,30.53,WSW,257,2.0,3.0,78,0.00,,,0.00,Wunderground v.1.15,2013-01-25 01:30:00,
2013-01-24 20:40:00,8.6,3.1,30.53,WSW,257,2.0,2.0,78,0.00,,,0.00,Wunderground v.1.15,2013-01-25 01:40:00,
2013-01-24 20:45:00,8.6,3.1,30.53,WSW,256,1.0,2.0,78,0.00,,,0.00,Wunderground v.1.15,2013-01-25 01:45:00,
2013-01-24 20:55:00,8.6,3.1,30.53,WSW,256,2.0,2.0,78,0.00,,,0.00,Wunderground v.1.15,2013-01-25 01:55:00,
2013-01-24 21:05:00,8.5,3.0,30.53,WSW,256,2.0,3.0,78,0.00,,,0.00,Wunderground v.1.15,2013-01-25 02:05:00,
2013-01-24 21:10:00,8.5,3.0,30.52,WSW,256,2.0,2.0,78,0.00,,,0.00,Wunderground v.1.15,2013-01-25 02:10:00,
2013-01-24 21:20:00,8.4,3.2,30.52,WSW,253,2.0,3.0,79,0.00,,,0.00,Wunderground v.1.15,2013-01-25 02:20:00,
2013-01-24 21:30:00,8.5,3.3,30.52,WSW,255,3.0,3.0,79,0.00,,,0.00,Wunderground v.1.15,2013-01-25 02:30:00,
2013-01-24 21:40:00,8.6,3.4,30.52,WSW,254,3.0,3.0,79,0.00,,,0.00,Wunderground v.1.15,2013-01-25 02:40:00,
2013-01-24 21:45:00,8.6,3.4,30.52,WSW,246,3.0,5.0,79,0.00,,,0.00,Wunderground v.1.15,2013-01-25 02:45:00,
2013-01-24 21:55:00,8.6,3.4,30.52,WSW,245,3.0,3.0,79,0.00,,,0.00,Wunderground v.1.15,2013-01-25 02:55:00,
2013-01-24 22:05:00,8.5,3.3,30.52,West,265,3.0,3.0,79,0.00,,,0.00,Wunderground v.1.15,2013-01-25 03:05:00,
2013-01-24 22:15:00,8.4,2.9,30.52,West,261,2.0,3.0,78,0.00,,,0.00,Wunderground v.1.15,2013-01-25 03:15:00,
2013-01-24 22:25:00,8.5,3.3,30.52,WSW,257,2.0,4.0,79,0.00,,,0.00,Wunderground v.1.15,2013-01-25 03:25:00,
2013-01-24 22:35:00,8.6,3.4,30.52,WSW,250,3.0,4.0,79,0.00,,,0.00,Wunderground v.1.15,2013-01-25 03:35:00,
2013-01-24 22:40:00,8.7,3.5,30.52,WSW,251,4.0,6.0,79,0.00,,,0.00,Wunderground v.1.15,2013-01-25 03:40:00,
2013-01-24 22:45:00,8.7,3.5,30.52,WSW,248,4.0,6.0,79,0.00,,,0.00,Wunderground v.1.15,2013-01-25 03:45:00,
2013-01-24 22:50:00,8.8,3.3,30.52,SW,234,4.0,4.0,78,0.00,,,0.00,Wunderground v.1.15,2013-01-25 03:50:00,
2013-01-24 23:00:00,9.0,3.3,30.52,WSW,252,4.0,6.0,77,0.00,,,0.00,Wunderground v.1.15,2013-01-25 04:00:00,
2013-01-24 23:10:00,9.1,3.4,30.52,WSW,254,3.0,5.0,77,0.00,,,0.00,Wunderground v.1.15,2013-01-25 04:10:00,
2013-01-24 23:20:00,9.0,3.3,30.52,WSW,252,4.0,5.0,77,0.00,,,0.00,Wunderground v.1.15,2013-01-25 04:20:00,
2013-01-24 23:25:00,9.0,3.0,30.52,WSW,247,4.0,5.0,76,0.00,,,0.00,Wunderground v.1.15,2013-01-25 04:25:00,
2013-01-24 23:35:00,9.0,3.3,30.52,West,262,5.0,6.0,77,0.00,,,0.00,Wunderground v.1.15,2013-01-25 04:35:00,
2013-01-24 23:45:00,8.9,2.9,30.52,WSW,254,4.0,4.0,76,0.00,,,0.00,Wunderground v.1.15,2013-01-25 04:45:00,
2013-01-24 23:55:00,8.8,3.1,30.52,West,260,3.0,4.0,77,0.00,,,0.00,Wunderground v.1.15,2013-01-25 04:55:00,